2017-008BM

Last updated on Wed Mar 01 2017 00:15:03 GMT+0000 (Coordinated Universal Time)

1 42007U 17008BM 17059.09045475 .00001600 00000-0 73094-4 0 9999 2 42007 97.5107 120.7063 0006878 227.7139 132.3518 15.22043810 1935
UTC large
Height (km)
Speed (km/s)
/
Latitude / Longitude
Inclination (degrees)
Orbital Period (minutes)
Azimuth
Elevation
Range (km)
Doppler Factor

Next 0 passes for location: London (51.5072 / 0.1276)

Sorry there are no passes over London.